[[{"header":{"parameterUnit":"m.s-1","parameterCategory":1,"la1":30.2991,"la2":30.254,"lo1":-89.0895,"lo2":-89.0444,"dy":0.0017,"dx":0.0017,"nx":28,"ny":28,"refTime":"2024-04-28T03:00:00:Z","depth":0,"parameterNumber":2,"parameterNumberName":"U-component_of_WINDS"},"data":[0,0,0,0,0,0,0,0,0,0,0,0,0,0,0,0,0,0,0,0,0,0,0,0,0,0,0,0,0,0,0,0,0,0,0,0,0,0,0,0,0,0,0,0,0,0,0,0,0,0,0,0,0,0,0,0,0,0,-4.5649,-4.565,0,-4.578,-4.5782,-4.5783,-4.5791,-4.579,-4.5788,-4.5787,-4.592,-4.5925,-4.593,0,0,0,0,0,0,0,0,0,0,0,0,0,-4.5405,-4.5409,-4.5649,-4.565,-4.5652,-4.578,-4.5782,-4.5783,-4.5791,-4.5789,-4.5788,-4.5786,-4.5918,-4.5924,-4.593,0,0,0,0,0,0,0,0,0,0,0,0,0,-4.5521,-4.5411,-4.5648,-4.5671,-4.5675,-4.5779,-4.5782,-4.5784,-4.5792,-4.5789,-4.5787,-4.5785,-4.5916,-4.5924,-4.5931,-4.6021,0,0,-4.5953,-4.5957,0,0,0,0,0,0,0,0,-4.5514,-4.553,-4.5666,-4.567,-4.5674,-4.5767,-4.5744,-4.5863,-4.5792,-4.5747,-4.5787,-4.5784,-4.5871,-4.5882,-4.5911,-4.6027,-4.6033,-4.5954,-4.5959,-4.5962,-4.5964,0,0,0,0,0,0,0,-4.5506,-4.5524,-4.5701,-4.5668,-4.5673,-4.5675,-4.5689,-4.5767,-4.582,-4.5751,-4.5752,-4.5767,-4.5872,-4.5904,-4.5914,-4.6035,-4.5954,-4.596,-4.5965,-4.5968,-4.6232,-4.6234,0,0,0,0,0,0,-4.5494,-4.5517,-4.5696,-4.5705,-4.5587,-4.5681,-4.5697,-4.5739,-4.5819,-4.5829,-4.5769,-4.5767,-4.5892,-4.5906,-4.5919,-4.6029,-4.5962,-4.5969,-4.5973,-4.6229,-4.6232,-4.6235,0,0,0,0,0,0,-4.5488,-4.551,-4.5691,-4.5611,-4.5635,-4.5688,-4.5735,-4.5743,-4.5775,-4.5833,-4.5842,-4.5792,-4.5891,-4.5909,-4.5996,-4.6034,-4.5972,-4.5979,-4.6226,-4.623,-4.6234,-4.6251,0,0,0,0,0,0,-4.5481,-4.5508,-4.5543,-4.5612,-4.5639,-4.5766,-4.5738,-4.5747,-4.5788,-4.5786,-4.5856,-4.5866,-4.5891,-4.5985,-4.6003,-4.6043,-4.5984,-4.6223,-4.6228,-4.6232,-4.6247,-4.6255,-4.6262,0,0,0,0,0,-4.5473,-4.5542,-4.5544,-4.5566,-4.5684,-4.5768,-4.5783,-4.5811,-4.5791,-4.5826,-4.5863,-4.5864,-4.6027,-4.5993,-4.6014,-4.6057,-4.6221,-4.6226,-4.6232,-4.6244,-4.6253,-4.6261,0,0,0,0,0,0,-4.5475,-4.5552,-4.5555,-4.5649,-4.5702,-4.5769,-4.5814,-4.582,-4.5879,-4.5876,-4.5907,-4.5923,-4.6009,-4.6042,-4.6003,-4.6149,-4.6122,-4.6132,-4.6124,-4.6133,-4.614,-4.613,-4.5991,0,0,0,0,0,-4.5487,-4.5549,-4.5613,-4.5689,-4.5716,-4.5761,-4.5799,-4.5815,-4.5871,-4.5894,-4.5937,-4.5992,-4.6055,-4.6096,-4.6158,-4.6253,-4.6268,-4.6293,-4.63,-4.6305,-4.6313,-4.6365,-4.6377,-4.6254,-4.6254,-4.6254,0,0,-4.5511,-4.5561,-4.5598,-4.5691,-4.5734,-4.5798,-4.5779,-4.5848,-4.5895,-4.5904,-4.5988,-4.6023,-4.6085,-4.6176,-4.6219,-4.6207,-4.6351,-4.6313,-4.6317,-4.6322,-4.6372,-4.6384,-4.6394,-4.6258,-4.6257,-4.6257,0,0,-4.5588,-4.5632,-4.57,-4.5744,-4.581,-4.5839,-4.5856,-4.5923,-4.5946,-4.6031,-4.6039,-4.6096,-4.6206,-4.625,-4.6286,-4.6381,-4.6383,-4.64,-4.6437,-4.6487,-4.6497,-4.6506,-4.6538,-4.655,-4.6408,-4.6408,-4.6408,0,-4.5609,-4.5706,-4.5735,-4.5803,-4.5843,-4.5855,-4.5925,-4.5966,-4.6048,-4.6076,-4.6061,-4.6199,-4.6242,-4.6343,-4.6366,-4.6396,-4.6415,-4.6391,-4.6493,-4.6502,-4.6511,-4.6542,-4.6555,-4.641,-4.641,-4.6409,-4.6409,0,-4.5729,-4.5795,-4.5843,-4.5922,-4.5968,-4.6037,-4.6076,-4.6119,-4.6133,-4.6164,-4.6251,-4.6303,-4.6375,-4.6401,-4.6415,-4.6505,-4.6495,-4.6487,-4.646,-4.6524,-4.6554,-4.6566,-4.6412,-4.6411,-4.6411,-4.6411,0,0,-4.5809,-4.5904,-4.5921,-4.5957,-4.6031,-4.6083,-4.6152,-4.6223,-4.6259,-4.6316,-4.6374,-4.6467,-4.646,-4.6502,-4.652,-4.6565,-4.6635,-4.6551,-4.6553,-4.6564,-4.6736,-4.6741,-4.6754,-4.6638,-4.664,-4.6642,-4.6731,0,-4.5892,-4.6015,-4.6044,-4.615,-4.6211,-4.6224,-4.6284,-4.6336,-4.6367,-4.6424,-4.6458,-4.6523,-4.6509,-4.6535,-4.6579,-4.6617,-4.667,-4.6611,-4.6691,-4.6694,-4.6673,-4.677,-4.6775,-4.6856,-4.6743,-4.6745,-4.6746,0,-4.6006,-4.6065,-4.6177,-4.6243,-4.627,-4.6323,-4.6391,-4.6445,-4.6504,-4.6524,-4.6571,-4.6585,-4.6657,-4.6628,-4.6728,-4.6687,-4.6722,-4.6746,-4.675,-4.6757,-4.6722,-4.6778,-4.6883,-4.6894,-4.6765,-4.6764,-4.6762,0,-4.6052,-4.616,-4.6241,-4.6271,-4.635,-4.6387,-4.6422,-4.6479,-4.652,-4.6579,-4.6606,-4.6673,-4.6709,-4.6761,-4.6793,-4.6769,-4.6889,-4.6863,-4.6907,-4.6906,-4.693,-4.6928,-4.704,-4.6955,-4.6955,-4.6955,-4.6955,0,-4.6141,-4.6209,-4.6262,-4.6311,-4.6387,-4.642,-4.6494,-4.6529,-4.658,-4.6636,-4.6652,-4.6704,-4.6744,-4.6802,-4.6828,-4.6906,-4.6922,-4.694,-4.6945,-4.6937,-4.6935,-4.6959,-4.6954,-4.6958,-4.6957,-4.6957,-4.6956,0,-4.6205,-4.6243,-4.6332,-4.6399,-4.6418,-4.6471,-4.6529,-4.6577,-4.6609,-4.668,-4.6699,-4.6749,-4.6818,-4.6855,-4.6942,-4.6959,-4.7046,-4.705,-4.7026,-4.7028,-4.7069,-4.7064,-4.7199,-4.7218,-4.7122,-4.7123,-4.7124,0,-4.6258,-4.6311,-4.6384,-4.6423,-4.6458,-4.6521,-4.6563,-4.6597,-4.664,-4.6712,-4.6751,-4.6821,-4.6879,-4.6989,-4.7033,-4.7099,-4.7103,-4.7146,-4.7113,-4.7103,-4.7102,-4.7098,-4.7103,-4.7151,-4.7152,-4.7153,-4.7153,0,-4.6349,-4.6366,-4.6426,-4.6493,-4.6543,-4.6597,-4.6651,-4.6682,-4.6725,-4.6773,-4.6843,-4.6888,-4.6977,-4.7046,-4.7116,-4.7151,-4.7159,-4.7164,-4.7177,-4.7168,-4.7152,-4.716,-4.704,-4.716,-4.7159,-4.7159,-4.7158,-4.7158,-4.6409,-4.6456,-4.6515,-4.6581,-4.6625,-4.6675,-4.6724,-4.6762,-4.6822,-4.6896,-4.6913,-4.6988,-4.7046,-4.714,-4.7178,-4.7237,-4.7228,-4.7248,-4.7253,-4.7257,-4.7258,-4.7144,-4.725,-4.725,-4.7249,-4.7249,-4.7249,0,-4.65,-4.6539,-4.6599,-4.6674,-4.6726,-4.673,-4.679,-4.6833,-4.6898,-4.6952,-4.7008,-4.709,-4.7157,-4.7207,-4.7275,-4.7313,-4.7318,-4.7329,-4.7326,-4.7334,-4.7262,-4.7243,-4.7324,-4.7324,-4.7324,-4.7324,-4.7324,-4.7324,-4.6553,-4.6632,-4.6656,-4.6757,-4.6795,-4.6868,-4.6902,-4.6948,-4.6991,-4.7081,-4.7137,-4.7169,-4.7221,-4.7294,-4.7355,-4.7368,-4.7392,-4.7403,-4.7416,-4.7347,-4.7339,-4.7331,-4.7314,-4.7408,-4.7408,-4.7483,-4.7484,-4.7484]},{"header":{"parameterUnit":"m.s-1","parameterCategory":1,"la1":30.2991,"la2":30.254,"lo1":-89.0895,"lo2":-89.0444,"dy":0.0017,"dx":0.0017,"nx":28,"ny":28,"refTime":"2024-04-28T03:00:00:Z","depth":0,"parameterNumber":3,"parameterNumberName":"V-component_of_WINDS"},"data":[0,0,0,0,0,0,0,0,0,0,0,0,0,0,0,0,0,0,0,0,0,0,0,0,0,0,0,0,0,0,0,0,0,0,0,0,0,0,0,0,0,0,0,0,0,0,0,0,0,0,0,0,0,0,0,0,0,0,5.4033,5.4034,0,5.4152,5.4153,5.4155,5.4141,5.4139,5.4138,5.4136,5.4254,5.4259,5.4264,0,0,0,0,0,0,0,0,0,0,0,0,0,5.3791,5.3796,5.4033,5.4034,5.4036,5.4152,5.4153,5.4155,5.4142,5.4139,5.4137,5.4135,5.4252,5.4258,5.4264,0,0,0,0,0,0,0,0,0,0,0,0,0,5.3902,5.3797,5.4033,5.4043,5.4045,5.4151,5.4153,5.4155,5.4142,5.4139,5.4136,5.4134,5.425,5.4258,5.4265,5.4367,0,0,5.4287,5.429,0,0,0,0,0,0,0,0,5.3895,5.391,5.404,5.4043,5.4045,5.4129,5.4111,5.4226,5.4143,5.4105,5.4136,5.4132,5.4214,5.4225,5.4253,5.4372,5.4377,5.4288,5.4292,5.4296,5.4298,0,0,0,0,0,0,0,5.3888,5.3905,5.408,5.4042,5.4045,5.4041,5.4054,5.4133,5.4174,5.4108,5.4108,5.4122,5.4215,5.4246,5.4256,5.4379,5.4288,5.4294,5.4299,5.4302,5.4589,5.4592,0,0,0,0,0,0,5.3878,5.3899,5.4076,5.4083,5.3962,5.4048,5.4062,5.4105,5.4173,5.4181,5.4124,5.4121,5.4235,5.4247,5.426,5.4384,5.4295,5.4302,5.4307,5.4586,5.459,5.4593,0,0,0,0,0,0,5.3873,5.3894,5.4071,5.3991,5.4013,5.4055,5.4103,5.4109,5.4139,5.4185,5.4192,5.4148,5.4233,5.4249,5.4341,5.4388,5.4306,5.4312,5.4582,5.4587,5.4591,5.4634,0,0,0,0,0,0,5.3866,5.3892,5.3932,5.3992,5.4018,5.4151,5.4106,5.4113,5.4153,5.4149,5.421,5.4217,5.4232,5.433,5.4348,5.4397,5.4318,5.4578,5.4584,5.459,5.4628,5.4639,5.4649,0,0,0,0,0,5.3857,5.3938,5.3934,5.3955,5.4069,5.4154,5.4168,5.4185,5.4156,5.4196,5.4226,5.4215,5.438,5.4339,5.436,5.4411,5.4575,5.4582,5.4589,5.4623,5.4637,5.4649,0,0,0,0,0,0,5.388,5.3946,5.3942,5.4045,5.4094,5.4152,5.4202,5.4199,5.4256,5.425,5.4268,5.4281,5.4374,5.4402,5.4355,5.4514,5.4474,5.4485,5.4492,5.4506,5.4516,5.4507,5.4324,0,0,0,0,0,5.3898,5.3963,5.4016,5.4101,5.4127,5.416,5.4198,5.4207,5.4258,5.4278,5.4315,5.4364,5.4427,5.4468,5.4528,5.4632,5.4645,5.4678,5.4688,5.4696,5.4706,5.4764,5.4779,5.4617,5.4617,5.4617,0,0,5.3934,5.3977,5.4017,5.4107,5.4146,5.4213,5.4178,5.4249,5.4298,5.4289,5.4378,5.4406,5.4462,5.4561,5.4606,5.4587,5.4754,5.4706,5.4712,5.4717,5.4773,5.4788,5.4802,5.4622,5.4621,5.462,0,0,5.4033,5.4073,5.4149,5.4189,5.425,5.4272,5.429,5.4349,5.4368,5.4458,5.4452,5.451,5.4618,5.4659,5.4693,5.481,5.4802,5.4829,5.4883,5.4939,5.4951,5.4963,5.5005,5.5019,5.4839,5.4839,5.4839,0,5.407,5.417,5.4188,5.4261,5.43,5.4297,5.4374,5.4412,5.4488,5.4515,5.4493,5.463,5.4667,5.4775,5.4804,5.4832,5.4853,5.4822,5.4948,5.496,5.4971,5.5011,5.5027,5.4842,5.4841,5.4841,5.4841,0,5.4212,5.4282,5.4336,5.4412,5.4458,5.4532,5.4561,5.4605,5.461,5.4634,5.4726,5.4771,5.4841,5.4867,5.4872,5.4977,5.4963,5.4945,5.4904,5.4989,5.5027,5.5042,5.4846,5.4845,5.4844,5.4843,0,0,5.4329,5.4415,5.4434,5.4469,5.4536,5.459,5.4664,5.4734,5.4771,5.4824,5.4887,5.4979,5.4963,5.5002,5.5012,5.5061,5.5151,5.5037,5.5038,5.5057,5.5269,5.5283,5.53,5.5147,5.515,5.5152,5.5265,0,5.4435,5.4568,5.4586,5.4703,5.4768,5.4766,5.483,5.4878,5.4903,5.4961,5.4988,5.5053,5.5027,5.5051,5.51,5.513,5.5194,5.5122,5.5204,5.5207,5.519,5.532,5.5334,5.5439,5.528,5.5282,5.5284,0,5.4577,5.4635,5.4759,5.4818,5.4846,5.4904,5.497,5.5025,5.5079,5.5094,5.5139,5.5143,5.5219,5.5176,5.5281,5.5232,5.5267,5.5287,5.5291,5.5299,5.525,5.5332,5.5472,5.5488,5.5307,5.5305,5.5304,0,5.465,5.4759,5.4848,5.4878,5.4948,5.4989,5.502,5.5072,5.5113,5.517,5.5197,5.5262,5.5298,5.5348,5.5369,5.5335,5.5473,5.5432,5.5487,5.5487,5.5516,5.5514,5.5664,5.5538,5.5538,5.5538,5.5537,0,5.4766,5.4842,5.4882,5.4936,5.5021,5.5042,5.5125,5.5154,5.52,5.526,5.5262,5.5317,5.5342,5.5402,5.5418,5.5503,5.5519,5.5533,5.5536,5.5533,5.5531,5.5556,5.5549,5.5542,5.5541,5.554,5.554,0,5.4862,5.4892,5.4988,5.5048,5.5065,5.5125,5.5175,5.5228,5.5253,5.5328,5.5347,5.5386,5.5456,5.5483,5.5568,5.5579,5.5677,5.5675,5.566,5.5661,5.5715,5.5709,5.5886,5.591,5.5769,5.577,5.5771,0,5.4935,5.4993,5.506,5.5101,5.5134,5.5199,5.5241,5.5264,5.5308,5.5374,5.5419,5.5489,5.5547,5.5659,5.5694,5.576,5.5759,5.5816,5.5768,5.5763,5.576,5.5756,5.5762,5.5825,5.5826,5.5828,5.5828,0,5.5061,5.5073,5.5134,5.5202,5.5253,5.5306,5.5358,5.5391,5.5421,5.5471,5.5543,5.5588,5.5676,5.5746,5.5813,5.5844,5.5842,5.5843,5.586,5.5857,5.5846,5.5853,5.5684,5.5839,5.5838,5.5837,5.5837,5.5836,5.5148,5.52,5.5255,5.5324,5.5366,5.5414,5.5467,5.5499,5.556,5.5635,5.5644,5.5722,5.5775,5.5865,5.59,5.5961,5.5945,5.5969,5.5975,5.598,5.5984,5.5836,5.5973,5.5973,5.5973,5.5972,5.5972,0,5.5274,5.531,5.5373,5.5446,5.55,5.5494,5.5552,5.5597,5.5666,5.5716,5.5773,5.5857,5.5925,5.5966,5.6035,5.6076,5.6076,5.6093,5.609,5.6097,5.5994,5.5973,5.6091,5.6091,5.6091,5.6091,5.6091,5.6091,5.5346,5.5434,5.5453,5.5562,5.5597,5.5674,5.5708,5.5753,5.5793,5.5887,5.5944,5.5971,5.6017,5.6089,5.6151,5.6162,5.6187,5.6205,5.6214,5.6117,5.6104,5.6093,5.6073,5.621,5.621,5.6312,5.6313,5.6313]}]]